Regional Weather Roundup
Issued by NWS Huntsville, AL

Home | Current Version | Previous Version | Text Only | Print | Product List | Glossary On
Versions: 1 2 3 4 5 6 7 8 9 10 11 12 13 14 15 16 17 18 19 20 21 22 23 24 25 26 27 28 29 30 31 32 33 34 35 36 37 38 39 40 41 42 43 44 45 46 47 48 49 50
000
ASUS44 KHUN 291810
RWRHUN

WEATHER ROUNDUP FOR THE TENNESSEE VALLEY
NATIONAL WEATHER SERVICE HUNTSVILLE AL
100 PM CDT FRI MAY 29 2015

ALZ001>004-291900-
NORTHWEST ALABAMA

CITY           SKY/WX    TMP DP  RH WIND       PRES   REMARKS
COURTLAND HCN    N/A     79 N/A N/A S6          N/A
BANKHEAD NF      N/A     81  69  67 SW3         N/A
RUSSELLVILLE     N/A     77 N/A N/A MISG        N/A
SHOALS AIRPORT MOSUNNY   81  67  62 SW7       30.15F
6HR MIN TEMP:  70; 6HR MAX TEMP:  81;

SHOALS TVA RES   N/A     79 N/A N/A MISG        N/A
$$

ALZ005>007-016-291900-
NORTH CENTRAL ALABAMA

CITY           SKY/WX    TMP DP  RH WIND       PRES   REMARKS
DECATUR AP     MOSUNNY   80  68  66 SE10      30.17F
6HR MIN TEMP:  67; 6HR MAX TEMP:  80;

HUNTSVILLE AP  PTSUNNY   81  68  64 SE14G20   30.17F
6HR MIN TEMP:  70; 6HR MAX TEMP:  81;

HUN NWS/UAH      N/A     79  66  63 SE8         N/A
MERIDIANVILLE  MOSUNNY   77  63  61 SE8       30.19F
REDSTONE ARSN  PTSUNNY   78  67  68 S10G20    30.17F
VINEMONT AP    FAIR      78  68  70 S7        30.20F
$$

ALZ008>010-291900-
NORTHEAST ALABAMA

CITY           SKY/WX    TMP DP  RH WIND       PRES   REMARKS
ALBERTVILLE    CLOUDY    70  70 100 SE5       30.19F
FORT PAYNE     CLOUDY    77  63  61 S6        30.20S
SCOTTSBORO HCN   N/A     70 N/A N/A MISG        N/A
VALLEY HEAD      N/A     77 N/A N/A MISG        N/A
$$

TNZ076-096-097-291900-
SOUTHEASTERN MIDDLE TENNESSEE

CITY           SKY/WX    TMP DP  RH WIND       PRES   REMARKS
TULLAHOMA      MOSUNNY   75  64  69 S8        30.20F
WINCHESTER     CLOUDY    72  70  94 S8        30.21S
$$

...SURROUNDING SITES...

CITY           SKY/WX    TMP DP  RH WIND       PRES   REMARKS
ATLANTA        PTSUNNY   81  64  56 SE9       30.22F
ANNISTON       PTSUNNY   81  65  58 SE7       30.18F
BIRMINGHAM     PTSUNNY   80  69  69 SE8       30.18F
CHATTANOOGA    PTSUNNY   82  66  58 S10       30.18F
CORINTH        PTSUNNY   77  70  78 S8        30.13S
DALTON         SUNNY     81  64  57 SE8       30.20F
GADSDEN        CLOUDY   N/A N/A N/A CALM      30.18F
GOLDEN TRNGL   PTSUNNY   81  70  69 SE12      30.12F
HALEYVILLE     FAIR      80  70  71 S8        30.18F
JACKSON TN     PTSUNNY   81  70  69 S12       30.10F
LEWISBURG      CLOUDY    78  66  66 S8        30.16F
MEMPHIS        PTSUNNY   84  70  62 S14       30.07F
NASHVILLE      PTSUNNY   77  71  82 S6        30.16F
OXFORD MS      FAIR      81  68  65 SE7       30.11F
ROME           PTSUNNY   83  66  56 SE12      30.18F
SAVANNAH       CLOUDY    75  32  20 S6        30.14S
TUPELO         MOSUNNY   81  69  67 SW7       30.12F
TUSCALOOSA     MOSUNNY   84  67  56 S7        30.13F
$$

...GULF COAST WEATHER...

CITY           SKY/WX    TMP DP  RH WIND       PRES   REMARKS
GULFPORT       MOSUNNY   84  71  65 SE18      30.09F
PASCAGOULA     MOSUNNY   85  68  56 S14       30.11S
MOBILE         MOSUNNY   84  68  58 SE8G18    30.12F
GULF SHORES    PTCLDY    84  71  66 SE14      30.13S
PENSACOLA      PTSUNNY   85  71  63 E10G20    30.12F HX  90
DESTIN         PTSUNNY   84  72  67 S8        30.13F
PANAMA CITY    PTSUNNY   83  70  64 S7        30.13F
APPALACHICOLA  SUNNY     88  67  49 SE12G20   30.14F HX  91
$$



USA.gov is the U.S. government's official web portal to all federal, state and local government web resources and services.